Weather History for Ballenas Island, BC

Change the Weather History Date:

Thursday, November 14, 2013

  Actual Average Record
Temperature  
Mean Temperature 48 °F -  
Max Temperature 49 °F - - ()
Min Temperature 46 °F - - ()
Degree Days  
Heating Degree Days 18    
Moisture  
Dew Point 43 °F    
Average Humidity 81    
Maximum Humidity 92    
Minimum Humidity 63    
Precipitation  
Precipitation 0.01 in - - ()
Sea Level Pressure  
Sea Level Pressure 30.15 in    
Wind  
Wind Speed 11 mph ()    
Max Wind Speed 20 mph    
Max Gust Speed -    
T = Trace of Precipitation, MM = Missing Value Source: Averaged Metar Reports

Daily Weather History Graph

Daily Weather History Graph

Search for Another Location

Airport:

Trip Planner

Search our weather history database for the weather conditions in past years. The results will help you decide how hot, cold, wet, or windy it might be!

Date:

Astronomy

Nov. 14, 2013 Rise Set
Actual Time 7:26 AM PST 4:35 PM PST
Civil Twilight 6:51 AM PST 5:10 PM PST
Nautical Twilight 6:12 AM PST 5:49 PM PST
Astronomical Twilight 5:35 AM PST 6:26 PM PST
Moon 3:12 PM PST (11/14) 4:13 AM PST (11/14)
Length of Visible Light 10h 18m
Length of Day
9h 09m
Waxing Gibbous, 92% of the Moon is Illuminated
Nov 14
Waxing Gibbous
Nov 17
Full
Nov 25
Last Quarter
Dec 2
New
Dec 9
First Quarter

Hourly Weather History & Observations

Time (PST) Temp. Dew Point Humidity Pressure Visibility Wind Dir Wind Speed Gust Speed Precip Events Conditions
12:00 AM 47.5 °F 45.1 °F 92% 30.30 in - WSW 3.5 mph - N/A   Unknown
1:00 AM 47.5 °F 45.0 °F 91% 30.28 in - SW 6.9 mph - N/A   Unknown
2:00 AM 48.6 °F 46.0 °F 91% 30.25 in - West 5.8 mph - N/A   Unknown
3:00 AM 48.2 °F 45.0 °F 89% 30.25 in - West 8.1 mph - N/A   Unknown
4:00 AM 49 °F 46 °F 87% 30.23 in - WNW 16.1 mph - -  
4:00 AM 48.6 °F 46.2 °F 92% 30.23 in - WNW 16.1 mph - N/A   Unknown
5:00 AM 48.7 °F 45.5 °F 89% 30.21 in - WNW 16.1 mph - N/A   Unknown
6:00 AM 48.4 °F 45.5 °F 90% 30.19 in - West 12.7 mph - N/A   Unknown
7:00 AM 48.2 °F 44.4 °F 87% 30.18 in - West 16.1 mph - N/A   Unknown
8:00 AM 48.2 °F 44.4 °F 87% 30.18 in - West 15.0 mph - N/A   Unknown
9:00 AM 48.2 °F 44.2 °F 86% 30.17 in - West 15.0 mph - N/A   Unknown
10:00 AM 48 °F 43 °F 78% 30.17 in - West 17.3 mph - -  
10:00 AM 47.8 °F 43.3 °F 84% 30.17 in - West 17.3 mph - N/A   Unknown
11:00 AM 48.2 °F 43.3 °F 83% 30.15 in - WNW 19.6 mph - N/A   Unknown
12:00 PM 48.4 °F 41.9 °F 78% 30.14 in - West 17.3 mph - N/A   Unknown
1:00 PM 48.4 °F 40.5 °F 74% 30.12 in - West 17.3 mph - N/A   Unknown
2:00 PM 48.4 °F 41.2 °F 76% 30.12 in - West 18.4 mph - N/A   Unknown
3:00 PM 48.9 °F 40.3 °F 72% 30.11 in - West 19.6 mph - 0.01 in   Unknown
4:00 PM 49 °F 40 °F 63% 30.10 in - West 17.3 mph - -  
4:00 PM 49.1 °F 40.3 °F 72% 30.10 in - West 17.3 mph - N/A   Unknown
5:00 PM 47.7 °F 40.1 °F 75% 30.09 in - WSW 13.8 mph - N/A   Unknown
6:00 PM 48.0 °F 40.6 °F 76% 30.09 in - WSW 15.0 mph - N/A   Unknown
7:00 PM 47.8 °F 40.5 °F 76% 30.07 in - WSW 12.7 mph - N/A   Unknown
8:00 PM 48.0 °F 39.6 °F 73% 30.08 in - NW 13.8 mph - N/A   Unknown
9:00 PM 47.3 °F 40.6 °F 78% 30.06 in - NW 10.4 mph - N/A   Unknown
10:00 PM 47 °F 40 °F 67% 30.05 in - SW 4.6 mph - -  
10:00 PM 46.6 °F 39.6 °F 77% 30.05 in - SW 4.6 mph - N/A   Unknown
11:00 PM 46.9 °F 38.3 °F 72% 30.04 in - WNW 10.4 mph - N/A   Unknown